User: anonymous   Login
Location: *
(35.2348°S, 91.3916°E)
Time: 10:11:44
(UTC+00:00)
Language:

Cosmos 1805 - Orbit

View from above orbital plane
View from above orbital plane
View from above satellite
View from above satellite

Ground track
Ground track

The orbit data is extracted from the following two-line orbital elements,

1 17191U 86097A   19343.92134730 +.00000613 +00000-0 +33452-4 0  9999
2 17191 082.4756 216.8413 0004502 177.3991 182.7264 15.12522761800231
Epoch (UTC): 09 December 2019 22:06:44
Eccentricity: 0.0004502
inclination: 82.4756°
perigee height: 525 km
apogee height: 531 km
right ascension of ascending node: 216.8413°
argument of perigee: 177.3991°
revolutions per day: 15.12522761
mean anomaly at epoch: 182.7264°
orbit number at epoch: 80023

The dashed part of the orbit path shows where the satellite is in the earth's shadow,  

DLR